Location: Góry Miechowskie
(50.3599°N, 20.1803°E)
Time: 14:57:31
(UTC+00:00)

deb Explorer IX - Visible Passes

Search period start: 13 September 2024 00:00
Search period end: 23 September 2024 00:00
Orbit: 505 x 849 km, 38.7° (Epoch: 13 September)

Date Brightness Start Highest point End Pass type
(mag) Time Alt. Az. Time Alt. Az. Time Alt. Az.
13 Sep ? 19:14:16 10° SSW 19:15:27 13° S 19:15:27 13° S visible
14 Sep ? 18:07:40 10° S 18:10:14 13° SSE 18:11:14 12° SE visible
14 Sep ? 19:48:26 10° SW 19:49:30 14° SSW 19:49:30 14° SSW visible
15 Sep ? 18:40:50 10° SSW 18:44:58 20° SSE 18:45:01 20° SSE visible
15 Sep ? 20:23:06 10° SW 20:23:15 11° SW 20:23:15 11° SW visible
16 Sep ? 17:33:43 10° S 17:36:56 15° SSE 17:40:09 10° ESE visible
16 Sep ? 19:15:01 10° SW 19:18:33 23° S 19:18:33 23° S visible
17 Sep ? 18:07:06 10° SSW 18:11:27 22° SSE 18:13:40 17° SE visible
17 Sep ? 19:49:34 10° WSW 19:51:52 19° SW 19:51:52 19° SW visible
18 Sep ? 18:41:13 10° SW 18:45:57 26° S 18:46:49 25° SSE visible
18 Sep ? 20:24:22 10° WSW 20:25:01 12° WSW 20:25:01 12° WSW visible
19 Sep ? 17:33:03 10° SW 17:37:30 23° SSE 17:41:35 11° ESE visible
19 Sep ? 19:15:39 10° WSW 19:19:47 25° SSW 19:19:47 25° SSW visible
20 Sep ? 18:07:04 10° SW 18:11:47 26° S 18:14:26 19° SE visible
20 Sep ? 19:50:19 10° WSW 19:52:37 18° SW 19:52:37 18° SW visible
21 Sep ? 18:41:21 10° WSW 18:45:58 25° S 18:47:08 23° S visible
22 Sep ? 17:32:33 10° SW 17:37:10 26° S 17:41:33 11° SE visible
22 Sep ? 19:15:54 10° WSW 19:19:43 20° SSW 19:19:43 20° SSW visible
